| time (UTC) | temp F | wind direction | speed knots | gust knots | rain 1hr in | rain 24hr in | rain mn in | humidity % | barometer mb |
| 20260504231531 | 71 | 223 | 1.7 | 4.3 | 0.00 | 0.00 | 0.00 | 34 | 1004.1 |
| 20260504230040 | 72 | 200 | 2.6 | 4.3 | 0.00 | 0.00 | 0.00 | 32 | 1004.0 |
| 20260504224532 | 73 | 270 | 1.7 | 5.2 | 0.00 | 0.00 | 0.00 | 34 | 1003.9 |
| 20260504223029 | 73 | 255 | 1.7 | 4.3 | 0.00 | 0.00 | 0.00 | 34 | 1004.0 |
| 20260504221542 | 73 | 266 | 2.6 | 7.0 | 0.00 | 0.00 | 0.00 | 37 | 1004.0 |
| 20260504220030 | 73 | 282 | 5.2 | 13.0 | 0.00 | 0.00 | 0.00 | 33 | 1004.1 |
| 20260504214526 | 73 | 263 | 7.8 | 15.6 | 0.00 | 0.00 | 0.00 | 34 | 1004.3 |
| 20260504213032 | 73 | 240 | 8.7 | 13.9 | 0.00 | 0.00 | 0.00 | 33 | 1004.3 |
| 20260504211525 | 73 | 254 | 7.0 | 12.2 | 0.00 | 0.00 | 0.00 | 33 | 1004.4 |
| 20260504210023 | 73 | 269 | 4.3 | 13.9 | 0.00 | 0.00 | 0.00 | 35 | 1004.3 |
| 20260504204525 | 73 | 286 | 7.8 | 17.4 | 0.00 | 0.00 | 0.00 | 34 | 1004.5 |
| 20260504203020 | 73 | 257 | 7.0 | 18.2 | 0.00 | 0.00 | 0.00 | 36 | 1004.7 |
| 20260504201516 | 73 | 252 | 7.0 | 11.3 | 0.00 | 0.00 | 0.00 | 37 | 1005.0 |
| 20260504200015 | 73 | 255 | 9.6 | 14.8 | 0.00 | 0.00 | 0.00 | 38 | 1005.2 |
| 20260504194512 | 72 | 251 | 8.7 | 15.6 | 0.00 | 0.00 | 0.00 | 41 | 1005.4 |
| 20260504193010 | 72 | 263 | 7.0 | 16.5 | 0.00 | 0.00 | 0.00 | 42 | 1005.7 |
| 20260504191507 | 72 | 235 | 10.4 | 16.5 | 0.00 | 0.00 | 0.00 | 39 | 1005.8 |
| 20260504190006 | 72 | 300 | 5.2 | 15.6 | 0.00 | 0.00 | 0.00 | 43 | 1006.1 |
| 20260504184503 | 71 | 297 | 8.7 | 17.4 | 0.00 | 0.00 | 0.00 | 44 | 1006.2 |
| 20260504183100 | 71 | 278 | 12.2 | 19.1 | 0.00 | 0.00 | 0.00 | 43 | 1006.5 |
| 20260504181601 | 69 | 268 | 7.8 | 15.6 | 0.00 | 0.00 | 0.00 | 45 | 1006.4 |
| 20260504180058 | 70 | 275 | 10.4 | 18.2 | 0.00 | 0.00 | 0.00 | 45 | 1006.7 |
| 20260504174553 | 69 | 257 | 8.7 | 20.9 | 0.00 | 0.00 | 0.00 | 46 | 1006.8 |
| 20260504173052 | 69 | 240 | 8.7 | 17.4 | 0.00 | 0.00 | 0.00 | 47 | 1006.7 |
| 20260504171552 | 68 | 294 | 9.6 | 15.6 | 0.00 | 0.00 | 0.00 | 48 | 1006.8 |
| 20260504081534 | 52 | 271 | 3.5 | 10.4 | 0.00 | 0.00 | 0.00 | 56 | 1009.6 |
| 20260504050008 | 51 | 209 | 0.9 | 5.2 | 0.00 | 0.00 | 0.00 | 56 | 1010.7 |
| 20260504044507 | 52 | 249 | 1.7 | 7.8 | 0.00 | 0.00 | 0.00 | 56 | 1010.8 |
| 20260504043004 | 52 | 242 | 0.9 | 4.3 | 0.00 | 0.00 | 0.00 | 56 | 1010.9 |
| 20260504041504 | 52 | 219 | 1.7 | 6.1 | 0.00 | 0.00 | 0.00 | 56 | 1010.9 |
| 20260504040123 | 53 | 265 | 5.2 | 11.3 | 0.00 | 0.00 | 0.00 | 54 | 1010.9 |
| 20260504034559 | 53 | 251 | 3.5 | 10.4 | 0.00 | 0.00 | 0.00 | 55 | 1010.7 |
| 20260504033102 | 53 | 232 | 3.5 | 7.8 | 0.00 | 0.00 | 0.00 | 56 | 1010.8 |
| 20260504031600 | 53 | 229 | 3.5 | 7.8 | 0.00 | 0.00 | 0.00 | 56 | 1010.9 |
| 20260504030058 | 54 | 275 | 6.1 | 13.0 | 0.00 | 0.00 | 0.00 | 54 | 1010.9 |
| 20260504024557 | 54 | 240 | 7.0 | 17.4 | 0.00 | 0.00 | 0.00 | 53 | 1011.0 |
| 20260504023102 | 54 | 282 | 11.3 | 17.4 | 0.00 | 0.00 | 0.00 | 53 | 1011.1 |
| 20260504021557 | 54 | 238 | 7.8 | 13.9 | 0.00 | 0.00 | 0.00 | 53 | 1011.3 |
| 20260504020056 | 54 | 319 | 6.1 | 8.7 | 0.00 | 0.00 | 0.00 | 54 | 1011.3 |
| 20260504014605 | 54 | 262 | 6.1 | 11.3 | 0.00 | 0.00 | 0.00 | 55 | 1011.4 |
| 20260504013101 | 54 | 244 | 6.1 | 11.3 | 0.00 | 0.00 | 0.00 | 54 | 1011.4 |
| 20260504011555 | 53 | 297 | 6.1 | 13.9 | 0.00 | 0.00 | 0.00 | 54 | 1011.7 |
| 20260504010055 | 54 | 254 | 9.6 | 18.2 | 0.00 | 0.00 | 0.00 | 54 | 1011.7 |
| 20260504004554 | 54 | 285 | 8.7 | 22.6 | 0.00 | 0.00 | 0.00 | 51 | 1011.8 |
| 20260504003101 | 54 | 291 | 7.0 | 11.3 | 0.00 | 0.00 | 0.00 | 50 | 1011.5 |
| 20260504001602 | 54 | 267 | 10.4 | 15.6 | 0.00 | 0.00 | 0.00 | 50 | 1011.3 |
| 20260504000042 | 54 | 279 | 7.8 | 24.3 | 0.00 | 0.00 | 0.00 | 51 | 1011.4 |
| 20260503234537 | 55 | 279 | 10.4 | 19.1 | 0.00 | 0.00 | 0.00 | 49 | 1011.7 |
| 20260503233033 | 55 | 260 | 12.2 | 22.6 | 0.00 | 0.00 | 0.00 | 48 | 1011.2 |